TimeMST,TemperatureF,Dew PointF,Humidity,Sea Level PressureIn,VisibilityMPH,Wind Direction,Wind SpeedMPH,Gust SpeedMPH,PrecipitationIn,Events,Conditions,WindDirDegrees,DateUTC
12:53 AM,10.0,7.0,87,30.06,10.0,South,6.9,-,N/A,,Clear,190,2012-12-30 07:53:00
1:53 AM,6.1,1.9,83,30.07,10.0,SSW,5.8,-,N/A,,Clear,210,2012-12-30 08:53:00
2:53 AM,9.0,5.0,84,30.08,10.0,South,6.9,-,N/A,,Clear,190,2012-12-30 09:53:00
3:53 AM,10.9,7.0,84,30.09,10.0,SSW,5.8,-,N/A,,Clear,210,2012-12-30 10:53:00
4:53 AM,12.0,8.1,84,30.10,10.0,SW,5.8,-,N/A,,Scattered Clouds,220,2012-12-30 11:53:00
5:53 AM,10.0,6.1,84,30.11,10.0,WSW,3.5,-,N/A,,Mostly Cloudy,250,2012-12-30 12:53:00
6:53 AM,16.0,12.0,84,30.11,7.0,WSW,5.8,-,0.00,Snow,Light Snow,240,2012-12-30 13:53:00
7:05 AM,17.6,12.2,79,29.99,8.0,WSW,6.9,-,0.00,Snow,Light Snow,240,2012-12-30 14:05:00
7:53 AM,16.0,12.0,84,30.12,8.0,SSW,5.8,-,0.00,,Overcast,210,2012-12-30 14:53:00
8:19 AM,17.6,15.8,93,30.01,2.5,SW,4.6,-,0.00,Snow,Light Snow,230,2012-12-30 15:19:00
8:30 AM,19.4,15.8,86,30.01,1.5,WSW,4.6,-,0.00,Snow,Light Snow,250,2012-12-30 15:30:00
8:44 AM,19.4,17.6,93,30.02,1.0,Calm,Calm,-,0.00,Snow,Light Snow,0,2012-12-30 15:44:00
8:53 AM,21.0,18.0,88,30.13,0.8,Calm,Calm,-,0.00,Snow,Light Snow,0,2012-12-30 15:53:00
9:37 AM,21.2,19.4,93,30.03,2.0,Calm,Calm,-,0.01,Snow,Light Snow,0,2012-12-30 16:37:00
9:42 AM,21.2,19.4,93,30.03,4.0,Calm,Calm,-,0.01,Snow,Light Snow,0,2012-12-30 16:42:00
9:53 AM,21.9,19.0,89,30.16,9.0,West,3.5,-,0.01,Snow,Light Snow,280,2012-12-30 16:53:00
10:21 AM,24.8,19.4,80,30.05,10.0,West,5.8,-,0.00,,Overcast,270,2012-12-30 17:21:00
10:53 AM,25.0,19.9,81,30.17,10.0,WNW,6.9,-,0.00,,Overcast,300,2012-12-30 17:53:00
11:34 AM,26.6,21.2,80,30.04,10.0,WNW,9.2,-,N/A,,Overcast,290,2012-12-30 18:34:00
11:53 AM,27.0,21.0,78,30.16,10.0,WNW,6.9,-,N/A,,Overcast,290,2012-12-30 18:53:00
12:19 PM,26.6,21.2,80,30.03,10.0,WSW,5.8,-,N/A,,Overcast,250,2012-12-30 19:19:00
12:53 PM,28.0,21.9,78,30.14,10.0,WSW,4.6,-,N/A,,Overcast,250,2012-12-30 19:53:00
1:31 PM,28.4,21.2,74,30.02,10.0,West,8.1,-,N/A,,Overcast,260,2012-12-30 20:31:00
1:53 PM,28.0,23.0,81,30.14,10.0,WSW,8.1,-,N/A,,Overcast,250,2012-12-30 20:53:00
2:31 PM,26.6,21.2,80,30.02,10.0,West,5.8,-,N/A,,Overcast,270,2012-12-30 21:31:00
2:53 PM,26.1,19.9,78,30.15,10.0,West,6.9,-,N/A,,Overcast,270,2012-12-30 21:53:00
3:53 PM,25.0,19.9,81,30.17,10.0,West,4.6,-,N/A,,Overcast,260,2012-12-30 22:53:00
4:53 PM,21.9,19.0,89,30.18,10.0,WSW,6.9,-,N/A,,Overcast,250,2012-12-30 23:53:00
5:53 PM,23.0,19.0,85,30.18,10.0,SW,5.8,-,N/A,,Overcast,230,2012-12-31 00:53:00
6:53 PM,23.0,19.0,85,30.17,10.0,West,3.5,-,N/A,,Overcast,270,2012-12-31 01:53:00
7:53 PM,21.0,19.0,92,30.17,10.0,South,3.5,-,N/A,,Overcast,170,2012-12-31 02:53:00
8:53 PM,21.9,19.0,89,30.15,10.0,SSW,5.8,-,N/A,,Overcast,200,2012-12-31 03:53:00
9:53 PM,19.9,18.0,92,30.16,10.0,SSE,4.6,-,N/A,,Overcast,160,2012-12-31 04:53:00
10:53 PM,19.9,18.0,92,30.16,10.0,SSE,5.8,-,N/A,,Overcast,150,2012-12-31 05:53:00
11:53 PM,19.9,17.1,89,30.15,10.0,SSE,5.8,-,N/A,,Overcast,150,2012-12-31 06:53:00